Wrangell, AK

10:02 AM AKDT on July 23, 2016 (GMT -0800)
Wrangell

Weather History for PAWG - October, 2012

Change the Weather History Date:

Friday, October 12, 2012

  Actual Average Record
Temperature  
Mean Temperature 46 °F -  
Max Temperature 51 °F 49 °F 60 °F (2000)
Min Temperature 42 °F 39 °F 25 °F (1966)
Degree Days  
Heating Degree Days 18    
Moisture  
Dew Point 42 °F    
Average Humidity 84    
Maximum Humidity 93    
Minimum Humidity 76    
Precipitation  
Precipitation 0.00 in - - ()
Sea Level Pressure  
Sea Level Pressure 29.38 in    
Wind  
Wind Speed 11 mph (East)    
Max Wind Speed 18 mph    
Max Gust Speed 24 mph    
Visibility 8 miles    
Events      
Averages and records for this station are not official NWS values.
T = Trace of Precipitation, MM = Missing Value Source: NWS Daily Summary

Daily Weather History Graph

Daily Weather History Graph

Search for Another Location

Airport or City:

Trip Planner

Search our weather history database for the weather conditions in past years. The results will help you decide how hot, cold, wet, or windy it might be!

Date:

Astronomy

Oct. 12, 2012 Rise Set
Actual Time 7:16 AM AKDT 5:53 PM AKDT
Civil Twilight 6:38 AM AKDT 6:31 PM AKDT
Nautical Twilight 5:55 AM AKDT 7:15 PM AKDT
Astronomical Twilight 5:11 AM AKDT 7:58 PM AKDT
Moon 3:38 AM AKDT (10/12) 4:29 PM AKDT (10/12)
Length of Visible Light 11h 52m
Length of Day
10h 36m
Waning Crescent, 10% of the Moon is Illuminated
Oct 12
Waning Crescent
Oct 15
New
Oct 21
First Quarter
Oct 29
Full
Nov 6
Last Quarter

Hourly Weather History & Observations

Time (AKDT) Temp. Windchill Dew Point Humidity Pressure Visibility Wind Dir Wind Speed Gust Speed Precip Events Conditions
12:16 AM 46.4 °F 40.1 °F 39.2 °F 76% 29.46 in 10.0 mi East 15.0 mph 18.4 mph N/A   Overcast
12:36 AM 46.4 °F 40.7 °F 39.2 °F 76% 29.45 in 10.0 mi East 12.7 mph - N/A   Overcast
12:56 AM 46.4 °F 41.5 °F 39.2 °F 76% 29.45 in 10.0 mi East 10.4 mph - N/A   Overcast
1:16 AM 44.6 °F 39.7 °F 39.2 °F 81% 29.44 in 10.0 mi East 9.2 mph - N/A   Overcast
1:36 AM 44.6 °F 38.8 °F 41.0 °F 87% 29.43 in 10.0 mi East 11.5 mph - N/A   Overcast
1:56 AM 44.6 °F 38.1 °F 39.2 °F 81% 29.42 in 10.0 mi East 13.8 mph - N/A   Overcast
2:16 AM 44.6 °F 38.8 °F 39.2 °F 81% 29.41 in 10.0 mi East 11.5 mph - N/A   Overcast
2:36 AM 44.6 °F 38.4 °F 39.2 °F 81% 29.40 in 10.0 mi East 12.7 mph - N/A   Overcast
2:56 AM 44.6 °F 38.1 °F 39.2 °F 81% 29.39 in 10.0 mi East 13.8 mph - N/A   Overcast
3:16 AM 44.6 °F 39.2 °F 39.2 °F 81% 29.38 in 10.0 mi East 10.4 mph - N/A   Overcast
3:36 AM 44.6 °F 38.8 °F 39.2 °F 81% 29.38 in 10.0 mi East 11.5 mph - N/A   Overcast
3:56 AM 44.6 °F 39.2 °F 39.2 °F 81% 29.37 in 10.0 mi East 10.4 mph - N/A   Overcast
4:16 AM 44.6 °F 38.8 °F 39.2 °F 81% 29.36 in 10.0 mi East 11.5 mph - N/A   Overcast
4:36 AM 44.6 °F 39.7 °F 39.2 °F 81% 29.36 in 10.0 mi East 9.2 mph - N/A   Overcast
4:56 AM 44.6 °F 39.2 °F 39.2 °F 81% 29.35 in 10.0 mi East 10.4 mph 16.1 mph N/A   Overcast
5:16 AM 44.6 °F 38.1 °F 39.2 °F 81% 29.34 in 10.0 mi East 13.8 mph - N/A   Overcast
5:36 AM 44.6 °F 38.8 °F 39.2 °F 81% 29.34 in 10.0 mi East 11.5 mph - N/A   Overcast
5:56 AM 44.6 °F 39.2 °F 39.2 °F 81% 29.33 in 10.0 mi East 10.4 mph - N/A   Overcast
6:16 AM 44.6 °F 38.8 °F 39.2 °F 81% 29.32 in 10.0 mi East 11.5 mph - N/A   Overcast
6:36 AM 44.6 °F 38.4 °F 39.2 °F 81% 29.32 in 10.0 mi East 12.7 mph - N/A   Overcast
6:56 AM 44.6 °F 38.4 °F 39.2 °F 81% 29.32 in 7.0 mi East 12.7 mph - N/A   Overcast
7:16 AM 44.6 °F 38.4 °F 39.2 °F 81% 29.31 in 7.0 mi East 12.7 mph - N/A   Overcast
7:36 AM 44.6 °F 38.4 °F 39.2 °F 81% 29.31 in 7.0 mi East 12.7 mph 18.4 mph N/A   Overcast
7:56 AM 44.6 °F 37.8 °F 39.2 °F 81% 29.31 in 7.0 mi East 15.0 mph - N/A   Overcast
8:16 AM 44.6 °F 38.1 °F 39.2 °F 81% 29.31 in 6.0 mi East 13.8 mph 19.6 mph N/A   Overcast
8:36 AM 44.6 °F 37.8 °F 39.2 °F 81% 29.31 in 6.0 mi East 15.0 mph - N/A   Overcast
8:56 AM 44.6 °F 37.8 °F 39.2 °F 81% 29.30 in 8.0 mi East 15.0 mph 21.9 mph N/A   Overcast
9:16 AM 44.6 °F 37.2 °F 39.2 °F 81% 29.30 in 8.0 mi East 17.3 mph 23.0 mph N/A   Overcast
9:36 AM 44.6 °F 37.4 °F 39.2 °F 81% 29.31 in 8.0 mi East 16.1 mph 20.7 mph N/A   Overcast
9:56 AM 44.6 °F 36.9 °F 39.2 °F 81% 29.31 in 8.0 mi East 18.4 mph 24.2 mph N/A   Overcast
10:36 AM 44.6 °F 37.8 °F 41.0 °F 87% 29.33 in 5.0 mi East 15.0 mph 19.6 mph N/A   Overcast
10:56 AM 44.6 °F 38.8 °F 41.0 °F 87% 29.34 in 8.0 mi East 11.5 mph - N/A   Overcast
11:16 AM 44.6 °F 38.4 °F 42.8 °F 93% 29.35 in 8.0 mi East 12.7 mph 17.3 mph N/A   Overcast
11:36 AM 46.4 °F 40.7 °F 42.8 °F 87% 29.35 in 8.0 mi East 12.7 mph 17.3 mph N/A   Overcast
11:56 AM 46.4 °F 41.5 °F 42.8 °F 87% 29.36 in 8.0 mi East 10.4 mph 17.3 mph N/A   Overcast
12:16 PM 46.4 °F 40.7 °F 42.8 °F 87% 29.36 in 8.0 mi East 12.7 mph 19.6 mph N/A   Overcast
1:16 PM 46.4 °F 42.4 °F 44.6 °F 93% 29.38 in 3.0 mi East 8.1 mph - N/A   Overcast
1:36 PM 46.4 °F 42.9 °F 42.8 °F 87% 29.40 in 3.0 mi East 6.9 mph - N/A   Overcast
1:56 PM 46.4 °F 45.2 °F 42.8 °F 87% 29.41 in 3.0 mi NE 3.5 mph - N/A   Overcast
2:16 PM 44.6 °F 42.2 °F 41.0 °F 87% 29.41 in 3.0 mi NNW 4.6 mph - N/A   Overcast
2:36 PM 44.6 °F 43.1 °F 41.0 °F 87% 29.42 in 3.0 mi North 3.5 mph - N/A   Overcast
2:56 PM 44.6 °F 43.1 °F 42.8 °F 93% 29.43 in 3.0 mi North 3.5 mph - N/A   Overcast
3:16 PM 44.6 °F - 41.0 °F 87% 29.43 in 3.0 mi Calm Calm - N/A   Overcast
3:36 PM 44.6 °F 40.7 °F 41.0 °F 87% 29.43 in 3.0 mi North 6.9 mph - N/A   Overcast
3:56 PM 44.6 °F - 42.8 °F 93% 29.42 in 3.0 mi Calm Calm - N/A   Overcast
4:16 PM 44.6 °F - 42.8 °F 93% 29.42 in 10.0 mi Calm Calm - N/A   Mostly Cloudy
4:36 PM 46.4 °F 45.2 °F 42.8 °F 87% 29.42 in 10.0 mi West 3.5 mph - N/A   Mostly Cloudy
4:56 PM 44.6 °F 42.2 °F 42.8 °F 93% 29.41 in 10.0 mi WNW 4.6 mph - N/A   Overcast
5:16 PM 46.4 °F 44.3 °F 42.8 °F 87% 29.40 in 10.0 mi NW 4.6 mph - N/A   Overcast
5:36 PM 44.6 °F 42.2 °F 41.0 °F 87% 29.41 in 10.0 mi NNW 4.6 mph - N/A   Overcast
5:56 PM 44.6 °F - 39.2 °F 81% 29.41 in 7.0 mi Calm Calm - N/A   Overcast
6:16 PM 42.8 °F 39.3 °F 39.2 °F 87% 29.40 in 7.0 mi WNW 5.8 mph - N/A   Overcast
6:36 PM 44.6 °F - 39.2 °F 81% 29.40 in 7.0 mi Calm Calm - N/A   Overcast
6:56 PM 44.6 °F 43.1 °F 41.0 °F 87% 29.40 in 7.0 mi West 3.5 mph - N/A   Overcast
7:16 PM 44.6 °F - 42.8 °F 93% 29.40 in 7.0 mi Calm Calm - N/A   Overcast
7:36 PM 48.2 °F - 44.6 °F 87% 29.40 in 7.0 mi WNW 5.8 mph - N/A   Overcast
7:56 PM 50.0 °F - 46.4 °F 87% 29.39 in 10.0 mi East 9.2 mph - N/A   Overcast
8:16 PM 50.0 °F - 46.4 °F 87% 29.39 in 10.0 mi South 6.9 mph - N/A   Overcast
8:36 PM 51.8 °F - 46.4 °F 82% 29.40 in 10.0 mi South 3.5 mph - N/A   Overcast
8:56 PM 51.8 °F - 46.4 °F 82% 29.39 in 10.0 mi SE 9.2 mph - N/A   Mostly Cloudy
9:16 PM 51.8 °F - 46.4 °F 82% 29.39 in 10.0 mi SE 11.5 mph 16.1 mph N/A   Mostly Cloudy
9:36 PM 51.8 °F - 46.4 °F 82% 29.38 in 10.0 mi SE 15.0 mph - N/A   Mostly Cloudy
9:56 PM 51.8 °F - 46.4 °F 82% 29.39 in 10.0 mi South 6.9 mph 20.7 mph N/A   Overcast
10:16 PM 51.8 °F - 46.4 °F 82% 29.40 in 10.0 mi WSW 6.9 mph - N/A   Overcast
10:36 PM 51.8 °F - 46.4 °F 82% 29.40 in 10.0 mi West 4.6 mph - N/A   Overcast
10:56 PM 51.8 °F - 46.4 °F 82% 29.40 in 10.0 mi WSW 4.6 mph - N/A   Overcast
11:16 PM 51.8 °F - 46.4 °F 82% 29.40 in 10.0 mi East 8.1 mph - N/A   Overcast
11:36 PM 50.0 °F - 46.4 °F 87% 29.41 in 10.0 mi West 4.6 mph - N/A   Overcast
11:56 PM 50.0 °F - 46.4 °F 87% 29.43 in 3.0 mi WNW 4.6 mph - N/A   Overcast